Ogden, UT

6:19 AM MDT on September 19, 2017 (GMT -0600)
Ogden-Hinckley

Weather History for KOGD - November, 2012

Change the Weather History Date:

Monday, November 12, 2012

  Actual Average Record
Temperature  
Mean Temperature 28 °F -  
Max Temperature 37 °F 51 °F 69 °F (1953)
Min Temperature 19 °F 31 °F 15 °F (1929)
Degree Days  
Heating Degree Days 37    
Moisture  
Dew Point 17 °F    
Average Humidity 63    
Maximum Humidity 74    
Minimum Humidity 37    
Precipitation  
Precipitation 0.00 in - - ()
Sea Level Pressure  
Sea Level Pressure 30.48 in    
Wind  
Wind Speed 6 mph (South)    
Max Wind Speed 9 mph    
Max Gust Speed -    
Visibility 10 miles    
Events      
Averages and records for this station are not official NWS values.
T = Trace of Precipitation, MM = Missing Value Source: NWS Daily Summary

Daily Weather History Graph

Daily Weather History Graph

Search for Another Location

Airport or City:

Trip Planner

Search our weather history database for the weather conditions in past years. The results will help you decide how hot, cold, wet, or windy it might be!

Date:

Astronomy

Nov. 12, 2012 Rise Set
Actual Time 7:13 AM MST 5:10 PM MST
Civil Twilight 6:43 AM MST 5:40 PM MST
Nautical Twilight 6:10 AM MST 6:13 PM MST
Astronomical Twilight 5:37 AM MST 6:46 PM MST
Moon 5:42 AM MST (11/12) 4:19 PM MST (11/12)
Length of Visible Light 10h 56m
Length of Day
9h 57m
Waning Crescent, 2% of the Moon is Illuminated
Nov 12
Waning Crescent
Nov 13
New
Nov 20
First Quarter
Nov 28
Full
Dec 6
Last Quarter

Hourly Weather History & Observations

Time (MST) Temp. Windchill Dew Point Humidity Pressure Visibility Wind Dir Wind Speed Gust Speed Precip Events Conditions
12:53 AM 24.1 °F 18.2 °F 16.0 °F 71% 30.51 in 10.0 mi SSE 4.6 mph - N/A   Clear
1:53 AM 23.0 °F 13.9 °F 16.0 °F 74% 30.52 in 10.0 mi SSE 8.1 mph - N/A   Clear
2:53 AM 21.9 °F 11.7 °F 14.0 °F 72% 30.53 in 10.0 mi SSE 9.2 mph - N/A   Clear
3:53 AM 21.9 °F 11.7 °F 14.0 °F 72% 30.53 in 10.0 mi South 9.2 mph - N/A   Clear
4:53 AM 21.0 °F 12.4 °F 12.9 °F 71% 30.53 in 10.0 mi South 6.9 mph - N/A   Clear
5:53 AM 21.0 °F 11.4 °F 12.9 °F 71% 30.53 in 10.0 mi South 8.1 mph - N/A   Clear
6:53 AM 19.9 °F 9.3 °F 12.0 °F 71% 30.55 in 10.0 mi South 9.2 mph - N/A   Clear
7:53 AM 21.9 °F 12.5 °F 12.0 °F 66% 30.56 in 10.0 mi South 8.1 mph - N/A   Clear
8:53 AM 24.1 °F 16.0 °F 14.0 °F 65% 30.56 in 10.0 mi South 6.9 mph - N/A   Clear
9:53 AM 26.1 °F 19.4 °F 15.1 °F 63% 30.55 in 10.0 mi South 5.8 mph - N/A   Clear
10:53 AM 34.0 °F 26.6 °F 16.0 °F 48% 30.51 in 10.0 mi NE 9.2 mph - N/A   Clear
11:53 AM 33.1 °F 27.7 °F 17.1 °F 52% 30.49 in 10.0 mi South 5.8 mph - N/A   Clear
12:53 PM 35.1 °F - 14.0 °F 42% 30.46 in 10.0 mi Calm Calm - N/A   Clear
1:53 PM 37.0 °F - 12.9 °F 37% 30.43 in 10.0 mi Calm Calm - N/A   Clear
2:53 PM 36.0 °F - 14.0 °F 41% 30.43 in 10.0 mi Calm Calm - N/A   Mostly Cloudy
3:53 PM 35.1 °F 32.2 °F 23.0 °F 61% 30.44 in 10.0 mi WNW 3.5 mph - N/A   Overcast
4:53 PM 34.0 °F 29.8 °F 23.0 °F 64% 30.43 in 10.0 mi NNW 4.6 mph - N/A   Overcast
5:53 PM 34.0 °F - 21.9 °F 61% 30.42 in 10.0 mi Calm Calm - N/A   Overcast
6:53 PM 33.1 °F 30.0 °F 21.9 °F 64% 30.44 in 10.0 mi WSW 3.5 mph - N/A   Overcast
7:53 PM 33.1 °F 30.0 °F 24.1 °F 70% 30.44 in 10.0 mi ENE 3.5 mph - N/A   Overcast
8:53 PM 34.0 °F - 23.0 °F 64% 30.41 in 10.0 mi Calm Calm - N/A   Overcast
9:53 PM 34.0 °F - 24.1 °F 67% 30.42 in 10.0 mi Calm Calm - N/A   Overcast
10:53 PM 33.1 °F 30.0 °F 23.0 °F 66% 30.39 in - South 3.5 mph - N/A   Overcast
11:53 PM 32.0 °F 27.5 °F 23.0 °F 69% 30.41 in 10.0 mi South 4.6 mph - N/A   Overcast